格洛纳斯M-752 COSMOS 2522 [GLONASS-M]

导读 | 星芒AI

COSMOS 2522 是一颗俄罗斯 GLONASS-M 导航卫星,于 2018 年 1 月 24 日由联盟号火箭发射。该卫星属于 GLONASS 系统,用于提供全球定位和导航服务。GLONASS-M 是 GLONASS 卫星的改进型,具备更长的使用寿命和更高的精度。COSMOS 2522 被部署在中轨道,运行周期约为 11 小时 15 分钟,是俄罗斯维持全球导航系统独立性的重要组成部分。

基本信息
目录编号:
42939
目录名称:
COSMOS 2522 (GLONASS)
国际标识:
2017-055A
轨道中心:
EARTH
卫星名称:
格洛纳斯M-752
卫星全名:
格洛纳斯M-752 COSMOS 2522 [GLONASS-M]
卫星状态:
在轨 (已飞行2961 天)
发射日期:
2017-09-22 UTC
国别 :
俄罗斯(独联体) (CIS)
星等 :
--
轨道信息
数据来源 国际轨道数据 AOE轨道数据
星历时间 2025-10-31T10:59:25+0800
17小时前
查看轨道信息
2025-10-30T19:00:00+0800
1天前
查看轨道信息
半长轴 25508.033km 25508.025km
偏心率 0.0007482 0.0007466
轨道倾角 64.076° 64.076°
近地点辐角 231.982° 231.898°
升交点赤经 199.680° 199.703°
平近点角 128.014° 336.969°
近地点 19110.812km 19110.845km
远地点 19148.984km 19148.935km
周期 675.733分钟 675.733分钟
每日圈数 2.131019 2.13102
详细信息
平衡模式:
三轴稳定
覆盖范围:
全球
运营商:
列舍特涅夫卫星信息系统
运营商所在国:
俄罗斯
制造商(研发单位):
列舍特涅夫卫星信息系统
制造商所在国:
俄罗斯
使用方式:
暂无
卫星简介
格洛纳斯(GLONASS )是苏联/俄罗斯研制卫星导航系统。标准配置为24颗卫星,其中18颗卫星就能保证该系统为俄罗斯境内用户提供全部服务。该卫星仍在工作。
2D轨道图
3D轨道图
轨道高度分析图
轨道倾角分析图
轨道综合分析图
查看轨道综合分析图